Beaumont, TX

11:43 PM CST on November 17, 2017 (GMT -0600)
Southeast Texas Regional

Weather History for KBPT - January, 2014

Change the Weather History Date:

Monday, January 13, 2014

  Actual Average Record
Temperature  
Mean Temperature 61 °F 52 °F  
Max Temperature 75 °F 62 °F 82 °F (2000)
Min Temperature 47 °F 43 °F 20 °F (1963)
Degree Days  
Heating Degree Days 4 13  
Month to date heating degree days 195 169  
Since 1 July heating degree days 850 719  
Cooling Degree Days 0 0  
Month to date cooling degree days 0 0  
Year to date cooling degree days 0 0  
Growing Degree Days 12 (Base 50)    
Moisture  
Dew Point 53 °F    
Average Humidity 60    
Maximum Humidity 93    
Minimum Humidity 26    
Precipitation  
Precipitation 0.26 in 0.18 in 2.48 in (1977)
Month to date precipitation 1.01 2.31  
Year to date precipitation 1.01 2.31  
Snow  
Snow 0.00 in 0.00 in 0.20 in (1982)
Month to date snowfall 0.0 0.0  
Since 1 July snowfall 0.0 T  
Snow Depth 0.00 in    
Sea Level Pressure  
Sea Level Pressure 29.94 in    
Wind  
Wind Speed 10 mph (SW)    
Max Wind Speed 23 mph    
Max Gust Speed 30 mph    
Visibility 9 miles    
Events Rain    
T = Trace of Precipitation, MM = Missing Value Source: NWS Daily Summary

Daily Weather History Graph

Daily Weather History Graph

Search for Another Location

Airport or City:

Trip Planner

Search our weather history database for the weather conditions in past years. The results will help you decide how hot, cold, wet, or windy it might be!

Date:

Astronomy

Jan. 13, 2014 Rise Set
Actual Time 7:12 AM CST 5:37 PM CST
Civil Twilight 6:46 AM CST 6:02 PM CST
Nautical Twilight 6:17 AM CST 6:32 PM CST
Astronomical Twilight 5:48 AM CST 7:01 PM CST
Moon 3:51 PM CST (1/13) 5:03 AM CST (1/13)
Length of Visible Light 11h 16m
Length of Day
10h 24m
Waxing Gibbous, 95% of the Moon is Illuminated
Jan 13
Waxing Gibbous
Jan 15
Full
Jan 23
Last Quarter
Jan 30
New
Feb 6
First Quarter

Hourly Weather History & Observations

Time (CST) Temp. Dew Point Humidity Pressure Visibility Wind Dir Wind Speed Gust Speed Precip Events Conditions
12:15 AM 60.8 °F 57.2 °F 88% 29.97 in 8.0 mi South 8.1 mph - 0.02 in Rain Light Rain
12:34 AM 62.6 °F 57.2 °F 82% 29.94 in 10.0 mi SE 12.7 mph - 0.03 in Rain Light Rain
12:53 AM 63.0 °F 59.0 °F 87% 29.92 in 10.0 mi SSE 17.3 mph 24.2 mph 0.03 in Rain Light Rain
1:53 AM 63.0 °F 60.1 °F 90% 29.91 in 10.0 mi South 12.7 mph 20.7 mph 0.00 in   Mostly Cloudy
2:26 AM 62.6 °F 57.2 °F 82% 29.93 in 10.0 mi SW 8.1 mph - N/A   Mostly Cloudy
2:53 AM 63.0 °F 59.0 °F 87% 29.92 in 10.0 mi SSW 4.6 mph - N/A   Overcast
3:21 AM 62.6 °F 59.0 °F 88% 29.90 in 10.0 mi South 3.5 mph - N/A   Overcast
3:44 AM 62.6 °F 59.0 °F 88% 29.87 in 10.0 mi SSE 6.9 mph - N/A   Overcast
3:53 AM 63.0 °F 60.1 °F 90% 29.88 in 9.0 mi SSW 5.8 mph - 0.00 in Rain Light Rain
4:09 AM 62.6 °F 60.8 °F 94% 29.88 in 6.0 mi South 11.5 mph - 0.01 in Rain Light Rain
4:43 AM 62.6 °F 60.8 °F 94% 29.90 in 3.0 mi South 10.4 mph - 0.09 in Rain Rain
4:53 AM 63.0 °F 61.0 °F 93% 29.88 in 4.0 mi SSE 5.8 mph - 0.12 in Rain Light Rain
5:53 AM 63.0 °F 61.0 °F 93% 29.88 in 10.0 mi SSW 6.9 mph - 0.04 in Rain Light Rain
6:14 AM 62.6 °F 60.8 °F 94% 29.88 in 10.0 mi South 10.4 mph - 0.00 in Rain Light Rain
6:44 AM 62.6 °F 60.8 °F 94% 29.88 in 10.0 mi South 9.2 mph - 0.00 in   Overcast
6:53 AM 63.0 °F 61.0 °F 93% 29.90 in 10.0 mi SW 8.1 mph - 0.00 in Rain Light Rain
7:53 AM 64.0 °F 62.1 °F 93% 29.90 in 9.0 mi South 8.1 mph - 0.07 in   Overcast
8:53 AM 64.9 °F 63.0 °F 93% 29.90 in 10.0 mi SSW 6.9 mph - N/A   Mostly Cloudy
9:00 AM 64.4 °F 62.6 °F 94% 29.90 in 10.0 mi SSW 8.1 mph - N/A   Overcast
9:53 AM 66.9 °F 64.9 °F 93% 29.92 in 6.0 mi SSW 5.8 mph - N/A   Overcast
10:33 AM 69.8 °F 66.2 °F 88% 29.91 in 6.0 mi WSW 6.9 mph - N/A   Overcast
10:40 AM 69.8 °F 66.2 °F 88% 29.91 in 7.0 mi SW 9.2 mph - N/A   Overcast
10:53 AM 71.1 °F 66.0 °F 84% 29.90 in 8.0 mi WSW 10.4 mph - N/A   Mostly Cloudy
11:04 AM 71.6 °F 64.4 °F 78% 29.90 in 9.0 mi WSW 10.4 mph - N/A   Mostly Cloudy
11:11 AM 69.8 °F 62.6 °F 78% 29.90 in 9.0 mi West 10.4 mph - N/A   Mostly Cloudy
11:53 AM 73.0 °F 60.1 °F 64% 29.90 in 10.0 mi WNW 15.0 mph - N/A   Scattered Clouds
12:53 PM 73.9 °F 55.9 °F 53% 29.87 in 10.0 mi WNW 11.5 mph 21.9 mph N/A   Scattered Clouds
1:53 PM 73.0 °F 52.0 °F 48% 29.88 in 10.0 mi WNW 16.1 mph 27.6 mph N/A   Partly Cloudy
2:53 PM 73.0 °F 48.0 °F 41% 29.89 in 10.0 mi NW 20.7 mph 27.6 mph N/A   Partly Cloudy
3:53 PM 72.0 °F 44.1 °F 37% 29.92 in 10.0 mi NNW 19.6 mph 27.6 mph N/A   Clear
4:53 PM 68.0 °F 32.0 °F 26% 29.95 in 10.0 mi WNW 19.6 mph 26.5 mph N/A   Clear
5:53 PM 64.0 °F 33.1 °F 31% 29.99 in 10.0 mi WNW 12.7 mph 23.0 mph N/A   Clear
6:53 PM 60.1 °F 30.0 °F 32% 30.01 in 10.0 mi WNW 9.2 mph - N/A   Clear
7:53 PM 57.0 °F 28.0 °F 33% 30.05 in 10.0 mi NW 10.4 mph - N/A   Clear
8:53 PM 55.0 °F 26.1 °F 33% 30.08 in 10.0 mi WNW 8.1 mph - N/A   Clear
9:53 PM 52.0 °F 28.0 °F 40% 30.11 in 10.0 mi WNW 4.6 mph - N/A   Clear
10:53 PM 50.0 °F 30.0 °F 46% 30.12 in 10.0 mi WNW 3.5 mph - N/A   Clear
11:53 PM 48.9 °F 30.0 °F 48% 30.12 in 10.0 mi WNW 5.8 mph - N/A   Clear